Theta_e
310 313 314 310 307 313 308 310 305 309 314 319 322 320 323 329 331 335 337 339 342 344 344 344 345 347 349 351 355 357 357 359
308 310 311 311 313 305 307 300 299 305 308 311 317 319 322 324 327 332 336 337 340 343 345 345 346 348 350 350 355 355 356 356
305 303 303 305 305 308 308 306 301 300 306 319 318 319 320 322 327 331 334 336 338 342 344 346 346 347 349 350 353 354 357 359
298 304 307 308 306 308 302 302 305 305 306 319 321 323 327 329 334 334 335 337 339 342 343 346 347 348 348 350 351 356 361 364
297 300 303 301 304 307 308 308 305 301 305 321 324 325 330 334 338 334 337 339 341 345 345 345 347 349 349 351 351 353 361 357
294 298 301 298 300 304 305 302 303 304 307 313 316 317 326 335 339 339 339 340 342 344 346 347 349 351 353 352 352 353 355 355
300 301 301 301 300 301 302 304 302 305 306 311 316 318 332 336 339 340 340 340 342 343 344 346 348 350 351 352 353 354 355 354
300 300 300 298 301 301 302 303 304 305 306 314 327 331 331 333 336 338 339 338 338 346 344 345 347 349 351 351 353 355 357 353
297 301 300 295 301 301 302 304 304 301 307 314 326 325 324 327 328 327 327 328 329 332 336 341 348 349 350 350 354 354 355 356
298 301 292 304 315 311 306 309 314 316 322 325 319 318 319 321 323 322 323 324 325 328 331 334 337 346 352 352 354 354 356 356
296 296 304 309 314 313 312 312 317 319 321 318 322 323 316 320 321 320 321 323 324 328 329 330 333 338 347 353 352 351 352 354
299 293 292 308 314 316 317 307 320 321 322 317 322 318 313 319 321 321 322 323 323 325 327 328 331 334 336 331 335 341 343 344
297 296 302 310 311 316 303 308 321 322 323 323 321 323 318 320 320 322 324 325 326 327 327 328 332 333 331 331 331 332 337 338
298 296 294 309 312 307 308 320 320 320 323 321 319 319 320 320 321 322 324 325 328 327 328 331 335 337 334 333 337 338 338 336
301 301 304 304 305 306 311 316 320 319 320 320 318 319 320 321 321 323 325 325 327 327 328 330 331 333 333 334 337 339 340 339
304 301 300 302 304 305 310 317 320 320 318 318 317 319 318 322 321 322 324 326 327 327 327 325 327 328 330 331 336 338 338 339
298 300 301 301 302 304 307 314 317 317 318 318 318 317 317 318 319 321 323 325 324 324 325 324 326 324 325 329 333 335 334 334
299 304 304 302 302 305 304 308 314 315 315 316 318 318 320 321 321 323 323 324 323 325 325 324 325 324 326 326 330 328 329 330
303 308 309 304 303 305 305 306 310 312 315 314 315 316 317 317 321 321 323 325 325 326 323 321 321 322 321 320 322 325 323 323
Wind_Speed
17 19 23 22 25 22 22 17 14 11 14 8 10 4 8 12 15 21 23 23 24 24 23 22 21 22 21 20 19 19 18 16
22 16 19 21 17 21 16 23 19 16 16 8 12 9 6 8 13 18 22 24 22 21 22 21 21 21 22 22 20 20 19 17
14 21 23 15 15 19 18 19 16 16 16 11 13 1 4 4 8 15 19 22 22 21 21 20 19 20 20 20 20 20 18 16
20 19 21 24 24 22 17 22 18 15 14 8 8 1 5 5 3 8 18 20 20 20 19 19 19 20 20 20 19 16 17 16
18 12 12 19 22 25 23 18 20 17 16 12 9 6 6 7 6 3 10 15 18 17 18 19 19 18 18 17 19 19 16 19
14 17 15 20 23 24 24 19 18 20 21 14 9 1 6 7 5 4 7 11 14 15 15 15 15 16 15 17 17 18 18 18
21 13 13 20 20 25 25 24 22 17 22 19 14 4 8 6 6 6 5 7 11 12 11 11 11 13 13 13 14 15 16 18
15 18 15 16 20 19 24 25 22 21 16 1 10 7 6 5 5 7 8 9 10 10 3 8 10 9 11 12 12 12 12 16
14 14 17 21 18 17 15 16 19 22 19 5 8 10 8 6 9 9 8 8 8 7 6 8 4 8 11 10 11 13 13 13
10 8 17 5 4 5 9 5 3 1 9 11 12 11 10 9 7 8 8 8 9 7 7 7 6 6 6 7 9 11 12 12
10 12 8 9 7 7 14 11 2 2 9 11 11 12 9 9 9 9 8 8 8 7 8 8 8 6 4 2 8 8 6 2
10 13 13 13 9 1 4 9 7 5 10 11 8 6 3 5 7 8 7 7 7 7 8 10 9 9 10 11 12 9 4 6
13 12 7 7 3 4 9 6 6 6 7 8 5 4 11 7 6 7 5 5 4 7 8 8 7 7 10 10 9 4 5 6
13 12 8 11 4 5 5 5 7 7 7 11 13 12 10 8 6 6 6 6 7 6 8 9 8 7 8 9 8 5 4 2
6 7 6 7 8 7 7 5 11 11 10 11 11 10 10 9 7 6 6 6 5 6 7 6 8 6 9 7 7 7 7 6
8 6 6 7 8 9 10 9 12 14 14 12 11 9 9 8 7 5 5 7 7 8 8 7 7 8 8 7 6 6 7 7
5 6 6 7 7 8 7 7 11 12 11 11 10 10 8 6 5 4 3 3 4 4 6 6 6 7 7 8 9 6 6 6
3 10 4 6 4 6 8 8 8 8 9 9 8 8 5 6 4 2 2 2 4 4 2 3 3 4 5 6 7 8 8 7
4 5 10 10 5 6 6 7 7 8 9 7 8 7 6 6 6 5 5 5 4 3 3 3 5 5 4 6 7 4 4 5
Wind_Direction
212 213 222 198 222 235 247 250 255 208 218 246 244 248 197 191 193 197 199 200 197 195 193 194 195 195 197 194 198 193 203 201
204 229 221 243 207 223 230 237 229 239 243 239 174 163 134 195 206 203 200 201 200 198 195 193 192 193 198 197 196 193 200 200
201 207 214 197 233 224 229 230 234 232 233 203 230 322 315 301 225 201 198 200 198 195 194 195 197 193 196 197 195 195 198 198
204 227 225 221 215 224 221 216 230 258 226 88 117 153 2 16 356 238 190 192 192 190 187 186 201 195 193 199 198 197 189 195
232 180 214 232 229 222 227 241 219 226 232 151 134 78 31 33 44 183 196 191 185 186 188 190 195 196 197 196 200 197 194 196
226 226 207 213 228 226 227 223 228 218 237 228 181 148 18 57 54 89 190 185 187 185 193 197 198 200 200 197 201 200 198 202
249 268 258 200 215 223 226 234 228 229 225 243 252 24 50 8 67 85 110 172 181 185 191 202 201 199 199 206 205 205 203 206
251 234 235 248 219 215 224 230 243 251 249 237 46 87 50 48 72 80 69 45 19 4 203 207 205 207 203 202 203 209 208 213
241 202 220 232 219 223 221 221 228 234 241 256 87 52 31 27 50 59 56 57 57 44 29 2 306 209 208 209 200 200 208 215
266 201 218 109 55 267 232 136 235 265 36 49 103 86 56 35 54 62 49 52 46 41 44 35 17 342 223 203 199 199 201 201
252 221 104 131 147 171 170 151 152 154 122 122 130 109 61 52 56 54 46 47 48 45 50 47 43 32 6 162 175 198 221 254
219 262 207 99 119 85 240 158 140 156 148 158 190 220 109 70 71 68 61 57 60 59 60 54 39 53 72 57 40 45 16 87
231 245 93 63 8 216 223 89 136 159 148 169 184 50 132 122 95 77 67 69 84 74 67 61 58 72 67 65 64 30 18 5
239 232 213 5 210 271 8 57 100 104 90 112 116 122 120 113 108 95 87 67 62 74 64 61 44 55 74 63 75 76 121 117
358 32 47 35 35 5 301 80 100 89 90 110 113 118 126 128 124 113 96 88 79 84 77 51 57 30 62 42 31 40 57 69
207 81 60 47 40 30 13 66 100 108 101 94 95 95 105 109 107 107 98 95 94 88 78 71 54 49 51 33 17 59 49 31
88 107 106 61 31 32 30 57 88 77 74 100 111 106 96 95 87 73 63 96 72 68 83 88 84 62 41 45 10 19 59 57
75 131 79 89 35 33 49 46 48 68 77 64 62 69 56 95 98 76 25 352 335 358 333 339 5 67 88 63 43 24 6 35
132 99 96 119 87 64 54 48 38 37 38 43 44 25 33 21 5 339 302 319 317 319 294 303 299 307 318 2 341 73 70 31